Location: Unspecified
(0.0000°N, 0.0000°E)
Time: 03:40:06
(UTC+00:00)

Kyokko - Pass Details

Date: 06 June 2023
Orbit: 634 x 3947 km, 65.4° (Epoch: 29 September)

Event Time Altitude Azimuth Distance (km) Brightness Sun altitude
Rises 03:51:00 0° 9° (N) 7,958 12.1 -29.2°
Reaches altitude 10° 04:02:14 10° 34° (NE) 6,370 11.9 -26.7°
Maximum altitude 04:08:33 12° 55° (NE) 5,678 11.9 -25.2°
Drops below altitude 10° 04:13:57 10° 75° (ENE) 5,383 11.9 -24.0°
Sets 04:20:56 0° 102° (ESE) 5,626 11.8 -22.4°
